Weather History for Danville, IL

Change the Weather History Date:

Tuesday, December 11, 2012

  Actual Average (KLAF) Record (KLAF)
Temperature  
Mean Temperature 29 °F 32 °F  
Max Temperature 35 °F 39 °F 61 °F (1979)
Min Temperature 23 °F 24 °F -11 °F (1977)
Degree Days  
Heating Degree Days 36 34  
Month to date heating degree days 347  
Since 1 July heating degree days 1448  
Cooling Degree Days 0 0  
Month to date cooling degree days 0  
Year to date cooling degree days 983  
Moisture  
Dew Point 25 °F    
Average Humidity 82    
Maximum Humidity 94    
Minimum Humidity 64    
Precipitation  
Precipitation 0.00 in 0.08 in 0.95 in (2000)
Month to date precipitation 1.01  
Year to date precipitation 35.08  
Sea Level Pressure  
Sea Level Pressure 30.07 in    
Wind  
Wind Speed 9 mph (SW)    
Max Wind Speed 18 mph    
Max Gust Speed 23 mph    
Visibility 10 miles    
Events      
T = Trace of Precipitation, MM = Missing Value Source: NWS Daily Summary

Daily Weather History Graph

Daily Weather History Graph

Search for Another Location

Airport:

Trip Planner

Search our weather history database for the weather conditions in past years. The results will help you decide how hot, cold, wet, or windy it might be!

Date:

Astronomy

Dec. 11, 2012 Rise Set
Actual Time 7:03 AM CST 4:24 PM CST
Civil Twilight 6:32 AM CST 4:55 PM CST
Nautical Twilight 5:58 AM CST 5:29 PM CST
Astronomical Twilight 5:25 AM CST 6:02 PM CST
Moon 4:57 AM CST (12/11) 3:03 PM CST (12/11)
Length of Visible Light 10h 22m
Length of Day
9h 21m
Waning Crescent, 4% of the Moon is Illuminated
Dec 11
Waning Crescent
Dec 13
New
Dec 19
First Quarter
Dec 28
Full
Jan 4
Last Quarter

Hourly Weather History & Observations

Time (CST) Temp. Windchill Dew Point Humidity Pressure Visibility Wind Dir Wind Speed Gust Speed Precip Events Conditions
12:15 AM 29.8 °F 21.5 °F 27.5 °F 91% 29.96 in 7.0 mi West 9.2 mph - N/A   Overcast
12:35 AM 29.8 °F 21.5 °F 27.3 °F 90% 29.96 in 7.0 mi West 9.2 mph - N/A   Overcast
12:55 AM 29.7 °F 19.6 °F 27.0 °F 90% 29.97 in 7.0 mi West 12.7 mph - N/A   Overcast
1:15 AM 29.8 °F 18.9 °F 27.3 °F 90% 29.98 in 7.0 mi West 15.0 mph 18.4 mph N/A   Overcast
1:35 AM 29.8 °F 20.3 °F 26.8 °F 88% 29.98 in 10.0 mi West 11.5 mph - N/A   Overcast
1:55 AM 29.7 °F 22.0 °F 26.4 °F 88% 29.99 in 10.0 mi WNW 8.1 mph - N/A   Overcast
2:15 AM 29.7 °F 21.3 °F 26.6 °F 88% 29.99 in 10.0 mi West 9.2 mph - N/A   Overcast
2:35 AM 29.7 °F 23.7 °F 26.4 °F 88% 29.99 in 10.0 mi West 5.8 mph - N/A   Overcast
2:55 AM 29.3 °F 21.5 °F 25.7 °F 86% 30.00 in 10.0 mi West 8.1 mph - N/A   Overcast
3:15 AM 28.9 °F 21.1 °F 25.5 °F 87% 30.00 in 10.0 mi WSW 8.1 mph - N/A   Overcast
3:35 AM 28.8 °F 22.6 °F 25.7 °F 88% 30.00 in 10.0 mi WSW 5.8 mph - N/A   Overcast
3:55 AM 28.2 °F 20.2 °F 25.5 °F 90% 30.00 in 10.0 mi WSW 8.1 mph - N/A   Overcast
4:15 AM 28.2 °F 23.1 °F 25.5 °F 90% 30.01 in 10.0 mi West 4.6 mph - N/A   Overcast
4:35 AM 27.0 °F 20.5 °F 24.3 °F 90% 30.01 in 10.0 mi West 5.8 mph - N/A   Scattered Clouds
4:55 AM 26.1 °F 18.4 °F 23.5 °F 90% 30.02 in 10.0 mi WSW 6.9 mph - N/A   Clear
5:15 AM 25.7 °F 18.0 °F 23.5 °F 92% 30.02 in 10.0 mi WSW 6.9 mph - N/A   Clear
5:35 AM 24.8 °F 17.9 °F 23.0 °F 93% 30.03 in 10.0 mi WSW 5.8 mph - N/A   Unknown
5:55 AM 24.8 °F 19.1 °F 22.8 °F 92% 30.03 in 10.0 mi WSW 4.6 mph - N/A   Unknown
6:15 AM 24.8 °F 19.1 °F 23.0 °F 93% 30.04 in 10.0 mi SW 4.6 mph - N/A   Unknown
6:35 AM 24.4 °F 17.5 °F 22.8 °F 94% 30.05 in 10.0 mi SSW 5.8 mph - N/A   Clear
6:55 AM 24.1 °F 19.7 °F 22.6 °F 94% 30.05 in 10.0 mi SW 3.5 mph - N/A   Clear
7:15 AM 23.4 °F 18.9 °F 21.9 °F 94% 30.06 in 10.0 mi SW 3.5 mph - N/A   Clear
7:35 AM 24.6 °F 18.8 °F 22.8 °F 93% 30.06 in 10.0 mi WSW 4.6 mph - N/A   Clear
7:55 AM 25.7 °F 21.5 °F 23.4 °F 91% 30.05 in 10.0 mi SSW 3.5 mph - N/A   Unknown
8:15 AM 26.6 °F 22.6 °F 23.5 °F 88% 30.06 in 10.0 mi SSW 3.5 mph - N/A   Clear
8:35 AM 26.6 °F 20.0 °F 23.0 °F 86% 30.06 in 10.0 mi South 5.8 mph - N/A   Clear
8:55 AM 28.2 °F 21.0 °F 24.4 °F 86% 30.07 in 10.0 mi SW 6.9 mph - N/A   Clear
9:15 AM 29.1 °F 21.3 °F 24.3 °F 82% 30.07 in 10.0 mi SSW 8.1 mph - N/A   Clear
9:35 AM 30.0 °F 22.4 °F 24.3 °F 79% 30.07 in 10.0 mi SSW 8.1 mph - N/A   Clear
9:55 AM 30.7 °F 22.0 °F 23.9 °F 76% 30.08 in 10.0 mi SSW 10.4 mph - N/A   Clear
10:15 AM 31.5 °F 22.3 °F 24.8 °F 76% 30.08 in 10.0 mi SSW 11.5 mph - N/A   Clear
10:35 AM 31.6 °F 21.2 °F 24.8 °F 76% 30.08 in 10.0 mi SSW 15.0 mph 18.4 mph N/A   Scattered Clouds
10:55 AM 32.0 °F 21.6 °F 25.7 °F 78% 30.07 in 10.0 mi SSW 15.0 mph - N/A   Scattered Clouds
11:15 AM 31.8 °F 20.6 °F 25.7 °F 78% 30.07 in 10.0 mi SW 17.3 mph - N/A   Scattered Clouds
11:35 AM 32.0 °F 21.2 °F 25.0 °F 75% 30.07 in 10.0 mi SW 16.1 mph - N/A   Scattered Clouds
11:55 AM 32.5 °F 21.9 °F 25.7 °F 76% 30.06 in 10.0 mi SSW 16.1 mph 23.0 mph N/A   Scattered Clouds
12:15 PM 32.9 °F 23.2 °F 25.0 °F 73% 30.06 in 10.0 mi SW 13.8 mph 20.7 mph N/A   Scattered Clouds
12:35 PM 33.4 °F 23.1 °F 25.7 °F 73% 30.05 in 10.0 mi SSW 16.1 mph - N/A   Clear
12:55 PM 34.0 °F 23.0 °F 25.7 °F 72% 30.06 in 10.0 mi SW 18.4 mph 23.0 mph N/A   Scattered Clouds
1:15 PM 34.3 °F 25.0 °F 25.7 °F 71% 30.05 in 10.0 mi SW 13.8 mph - N/A   Clear
1:35 PM 34.2 °F 24.4 °F 25.2 °F 70% 30.05 in 10.0 mi SW 15.0 mph 20.7 mph N/A   Clear
1:55 PM 34.7 °F 25.9 °F 25.0 °F 68% 30.05 in 10.0 mi SSW 12.7 mph - N/A   Scattered Clouds
2:15 PM 35.2 °F 24.7 °F 25.5 °F 68% 30.05 in 10.0 mi SSW 18.4 mph - N/A   Clear
2:35 PM 35.2 °F 25.4 °F 24.1 °F 64% 30.05 in 10.0 mi SW 16.1 mph 19.6 mph N/A   Clear
2:55 PM 34.9 °F 24.9 °F 23.9 °F 64% 30.06 in 10.0 mi SW 16.1 mph 20.7 mph N/A   Clear
3:15 PM 34.5 °F 25.3 °F 24.4 °F 67% 30.07 in 10.0 mi SW 13.8 mph 23.0 mph N/A   Clear
3:35 PM 34.2 °F 24.8 °F 24.1 °F 67% 30.07 in 10.0 mi SW 13.8 mph 19.6 mph N/A   Clear
3:55 PM 33.8 °F 25.3 °F 24.6 °F 69% 30.08 in 10.0 mi SSW 11.5 mph 21.9 mph N/A   Clear
4:15 PM 33.8 °F 25.3 °F 24.6 °F 69% 30.08 in 10.0 mi SW 11.5 mph - N/A   Clear
4:35 PM 33.1 °F 24.9 °F 25.2 °F 73% 30.08 in 10.0 mi SSW 10.4 mph - N/A   Clear
4:55 PM 32.9 °F 24.7 °F 25.3 °F 74% 30.08 in 10.0 mi SSW 10.4 mph - N/A   Clear
5:15 PM 32.2 °F 24.4 °F 25.5 °F 76% 30.08 in 10.0 mi SSW 9.2 mph - N/A   Clear
5:35 PM 32.0 °F 25.6 °F 26.2 °F 79% 30.08 in 10.0 mi South 6.9 mph - N/A   Clear
5:55 PM 31.6 °F 24.4 °F 26.2 °F 80% 30.09 in 10.0 mi SSW 8.1 mph - N/A   Clear
6:15 PM 31.8 °F 23.9 °F 25.9 °F 79% 30.10 in 10.0 mi SSW 9.2 mph - N/A   Clear
6:35 PM 31.6 °F 23.7 °F 25.9 °F 79% 30.10 in 10.0 mi SSW 9.2 mph - N/A   Clear
6:55 PM 31.5 °F 23.5 °F 25.7 °F 79% 30.11 in 10.0 mi SSW 9.2 mph - N/A   Clear
7:15 PM 31.3 °F 23.3 °F 25.7 °F 80% 30.11 in 10.0 mi SSW 9.2 mph - N/A   Clear
7:35 PM 30.9 °F 23.5 °F 25.7 °F 81% 30.13 in 10.0 mi SSW 8.1 mph - N/A   Clear
7:55 PM 30.4 °F 22.9 °F 25.5 °F 82% 30.13 in 10.0 mi SSW 8.1 mph - N/A   Clear
8:15 PM 30.2 °F 22.6 °F 25.3 °F 82% 30.13 in 10.0 mi SW 8.1 mph - N/A   Clear
8:35 PM 30.0 °F 22.4 °F 25.5 °F 83% 30.14 in 10.0 mi SW 8.1 mph - N/A   Clear
8:55 PM 30.2 °F 21.9 °F 25.7 °F 83% 30.14 in 10.0 mi SSW 9.2 mph - N/A   Clear
9:15 PM 29.5 °F 21.8 °F 25.3 °F 85% 30.15 in 10.0 mi SW 8.1 mph - N/A   Clear
9:35 PM 28.4 °F 22.2 °F 24.8 °F 86% 30.16 in 10.0 mi SW 5.8 mph - N/A   Clear
9:55 PM 28.9 °F 22.8 °F 24.1 °F 82% 30.16 in 10.0 mi SW 5.8 mph - N/A   Clear
10:15 PM 29.1 °F 23.0 °F 24.3 °F 82% 30.17 in 10.0 mi SSW 5.8 mph - N/A   Clear
10:35 PM 28.4 °F 23.3 °F 24.8 °F 86% 30.17 in 10.0 mi South 4.6 mph - N/A   Clear
10:55 PM 28.4 °F 24.6 °F 24.6 °F 86% 30.18 in 10.0 mi SSW 3.5 mph - N/A   Clear
11:15 PM 28.2 °F 23.1 °F 24.4 °F 86% 30.18 in 10.0 mi SSW 4.6 mph - N/A   Clear
11:35 PM 27.5 °F 23.6 °F 23.9 °F 86% 30.19 in 10.0 mi SW 3.5 mph - N/A   Clear
11:55 PM 27.7 °F 23.8 °F 23.7 °F 85% 30.19 in 10.0 mi SSW 3.5 mph - N/A   Clear